Time,TemperatureF,DewpointF,PressureIn,WindDirection,WindDirectionDegrees,WindSpeedMPH,WindSpeedGustMPH,Humidity,HourlyPrecipIn,Conditions,Clouds,dailyrainin,SoftwareType,DateUTC
2013-10-05 00:02:00,45.2,41.9,30.14,SSE,149,0.0,0.0,88,0.00,,CLR,0.00,VWS V14.01,2013-10-05 07:02:00,
2013-10-05 00:07:00,45.1,41.8,30.14,SSE,149,0.0,0.0,88,0.00,,CLR,0.00,VWS V14.01,2013-10-05 07:07:00,
2013-10-05 00:12:00,44.9,41.6,30.14,SSE,149,0.0,0.0,88,0.00,,CLR,0.00,VWS V14.01,2013-10-05 07:12:00,
2013-10-05 00:17:00,44.8,41.5,30.14,SSE,149,0.0,0.0,88,0.00,,CLR,0.00,VWS V14.01,2013-10-05 07:17:00,
2013-10-05 00:22:00,44.8,41.8,30.14,SSE,149,0.0,0.0,89,0.00,,CLR,0.00,VWS V14.01,2013-10-05 07:22:00,
2013-10-05 00:27:00,44.8,41.8,30.14,SSE,149,0.0,0.0,89,0.00,,CLR,0.00,VWS V14.01,2013-10-05 07:27:00,
2013-10-05 00:32:00,44.8,41.8,30.14,SSE,149,0.0,0.0,89,0.00,,CLR,0.00,VWS V14.01,2013-10-05 07:32:00,
2013-10-05 00:37:00,44.9,42.2,30.14,SSE,149,0.0,0.0,90,0.00,,CLR,0.00,VWS V14.01,2013-10-05 07:37:00,
2013-10-05 00:42:00,44.9,41.9,30.14,SSE,149,0.0,0.0,89,0.00,,CLR,0.00,VWS V14.01,2013-10-05 07:42:00,
2013-10-05 00:47:00,44.8,41.8,30.14,SSE,149,0.0,0.0,89,0.00,,CLR,0.00,VWS V14.01,2013-10-05 07:47:00,
2013-10-05 00:52:00,44.5,41.5,30.14,SSE,149,0.0,0.0,89,0.00,,CLR,0.00,VWS V14.01,2013-10-05 07:52:00,
2013-10-05 00:57:00,44.5,41.5,30.14,SSE,149,0.0,0.0,89,0.00,,CLR,0.00,VWS V14.01,2013-10-05 07:57:00,
2013-10-05 01:02:00,44.2,41.2,30.14,SSE,149,0.0,0.0,89,0.00,,CLR,0.00,VWS V14.01,2013-10-05 08:02:00,
2013-10-05 01:07:00,43.9,40.9,30.14,SSE,149,0.0,0.0,89,0.00,,CLR,0.00,VWS V14.01,2013-10-05 08:07:00,
2013-10-05 01:12:00,43.9,41.2,30.14,SSE,149,0.0,0.0,90,0.00,,CLR,0.00,VWS V14.01,2013-10-05 08:12:00,
2013-10-05 01:17:00,43.8,40.8,30.14,SSE,149,0.0,0.0,89,0.00,,CLR,0.00,VWS V14.01,2013-10-05 08:17:00,
2013-10-05 01:22:00,43.8,41.1,30.14,SSE,149,0.0,0.0,90,0.00,,CLR,0.00,VWS V14.01,2013-10-05 08:22:00,
2013-10-05 01:27:00,43.5,40.5,30.14,SSE,149,0.0,0.0,89,0.00,,CLR,0.00,VWS V14.01,2013-10-05 08:27:00,
2013-10-05 01:32:00,43.3,40.3,30.14,SSE,149,0.0,0.0,89,0.00,,CLR,0.00,VWS V14.01,2013-10-05 08:32:00,
2013-10-05 01:37:00,43.2,40.5,30.14,SSE,149,0.0,0.0,90,0.00,,CLR,0.00,VWS V14.01,2013-10-05 08:37:00,
2013-10-05 01:42:00,43.1,40.4,30.14,SSE,149,0.0,0.0,90,0.00,,CLR,0.00,VWS V14.01,2013-10-05 08:42:00,
2013-10-05 01:47:00,42.9,40.2,30.14,SSE,149,0.0,0.0,90,0.00,,CLR,0.00,VWS V14.01,2013-10-05 08:47:00,
2013-10-05 01:52:00,42.8,40.1,30.14,SSE,149,0.0,0.0,90,0.00,,CLR,0.00,VWS V14.01,2013-10-05 08:52:00,
2013-10-05 01:57:00,42.6,39.9,30.14,SSE,149,0.0,0.0,90,0.00,,CLR,0.00,VWS V14.01,2013-10-05 08:57:00,
2013-10-05 02:02:00,42.5,39.8,30.14,SSE,149,0.0,0.0,90,0.00,,CLR,0.00,VWS V14.01,2013-10-05 09:02:00,
2013-10-05 02:07:00,42.3,39.6,30.14,SSE,149,0.0,0.0,90,0.00,,CLR,0.00,VWS V14.01,2013-10-05 09:07:00,
2013-10-05 02:12:00,42.2,39.5,30.14,SSE,149,0.0,0.0,90,0.00,,CLR,0.00,VWS V14.01,2013-10-05 09:12:00,
2013-10-05 02:17:00,42.1,39.4,30.14,SSE,149,0.0,0.0,90,0.00,,CLR,0.00,VWS V14.01,2013-10-05 09:17:00,
2013-10-05 02:22:00,42.2,39.8,30.14,SSE,149,0.0,0.0,91,0.00,,CLR,0.00,VWS V14.01,2013-10-05 09:22:00,
2013-10-05 02:27:00,42.3,39.9,30.14,SSE,149,0.0,0.0,91,0.00,,CLR,0.00,VWS V14.01,2013-10-05 09:27:00,
2013-10-05 02:32:00,42.3,39.9,30.13,SSE,149,0.0,0.0,91,0.00,,CLR,0.00,VWS V14.01,2013-10-05 09:32:00,
2013-10-05 02:37:00,42.2,39.5,30.13,SSE,149,0.0,0.0,90,0.00,,CLR,0.00,VWS V14.01,2013-10-05 09:37:00,
2013-10-05 02:42:00,42.2,39.8,30.13,SSE,149,0.0,0.0,91,0.00,,CLR,0.00,VWS V14.01,2013-10-05 09:42:00,
2013-10-05 02:47:00,42.1,39.4,30.13,SSE,149,0.0,0.0,90,0.00,,CLR,0.00,VWS V14.01,2013-10-05 09:47:00,
2013-10-05 02:52:00,41.8,39.1,30.13,SSE,149,0.0,0.0,90,0.00,,CLR,0.00,VWS V14.01,2013-10-05 09:52:00,
2013-10-05 02:57:00,41.8,39.4,30.13,SSE,149,0.0,0.0,91,0.00,,CLR,0.00,VWS V14.01,2013-10-05 09:57:00,
2013-10-05 03:02:00,41.6,38.9,30.13,SSE,149,0.0,0.0,90,0.00,,CLR,0.00,VWS V14.01,2013-10-05 10:02:00,
2013-10-05 03:07:00,41.6,39.2,30.12,SSE,149,0.0,0.0,91,0.00,,CLR,0.00,VWS V14.01,2013-10-05 10:07:00,
2013-10-05 03:11:00,41.8,39.4,30.12,SSE,149,0.0,0.0,91,0.00,,CLR,0.00,VWS V14.01,2013-10-05 10:11:00,
2013-10-05 03:16:00,41.9,39.5,30.12,SSE,149,0.0,0.0,91,0.00,,CLR,0.00,VWS V14.01,2013-10-05 10:16:00,
2013-10-05 03:21:00,42.1,39.7,30.12,SSE,149,0.0,0.0,91,0.00,,CLR,0.00,VWS V14.01,2013-10-05 10:21:00,
2013-10-05 03:26:00,42.1,39.7,30.12,SSE,149,0.0,0.0,91,0.00,,CLR,0.00,VWS V14.01,2013-10-05 10:26:00,
2013-10-05 03:31:00,41.8,39.4,30.12,SSE,149,0.0,0.0,91,0.00,,CLR,0.00,VWS V14.01,2013-10-05 10:31:00,
2013-10-05 03:36:00,41.6,38.9,30.12,SSE,149,0.0,0.0,90,0.00,,CLR,0.00,VWS V14.01,2013-10-05 10:36:00,
2013-10-05 03:41:00,41.5,38.8,30.12,SSE,149,0.0,0.0,90,0.00,,CLR,0.00,VWS V14.01,2013-10-05 10:41:00,
2013-10-05 03:46:00,41.5,39.1,30.12,SSE,149,0.0,0.0,91,0.00,,CLR,0.00,VWS V14.01,2013-10-05 10:46:00,
2013-10-05 03:51:00,41.5,38.8,30.12,SSE,149,0.0,0.0,90,0.00,,CLR,0.00,VWS V14.01,2013-10-05 10:51:00,
2013-10-05 03:56:00,41.5,39.1,30.11,SSE,149,0.0,0.0,91,0.00,,CLR,0.00,VWS V14.01,2013-10-05 10:56:00,
2013-10-05 04:02:00,41.3,38.6,30.12,SSE,149,0.0,0.0,90,0.00,,CLR,0.00,VWS V14.01,2013-10-05 11:02:00,
2013-10-05 04:07:00,41.2,38.5,30.11,SSE,149,0.0,0.0,90,0.00,,CLR,0.00,VWS V14.01,2013-10-05 11:07:00,
2013-10-05 04:12:00,41.2,38.8,30.12,SSE,149,0.0,0.0,91,0.00,,CLR,0.00,VWS V14.01,2013-10-05 11:12:00,
2013-10-05 04:16:00,41.1,38.7,30.12,SSE,149,0.0,0.0,91,0.00,,CLR,0.00,VWS V14.01,2013-10-05 11:16:00,
2013-10-05 04:21:00,40.9,38.2,30.12,SSE,149,0.0,0.0,90,0.00,,CLR,0.00,VWS V14.01,2013-10-05 11:21:00,
2013-10-05 04:26:00,40.8,38.1,30.12,SSE,149,0.0,0.0,90,0.00,,CLR,0.00,VWS V14.01,2013-10-05 11:26:00,
2013-10-05 04:31:00,40.9,38.5,30.12,SSE,149,0.0,0.0,91,0.00,,CLR,0.00,VWS V14.01,2013-10-05 11:31:00,
2013-10-05 04:36:00,40.8,38.4,30.12,SSE,149,0.0,0.0,91,0.00,,CLR,0.00,VWS V14.01,2013-10-05 11:36:00,
2013-10-05 04:41:00,40.9,38.5,30.12,SSE,149,0.0,0.0,91,0.00,,CLR,0.00,VWS V14.01,2013-10-05 11:41:00,
2013-10-05 04:46:00,41.1,38.7,30.11,SSE,149,0.0,0.0,91,0.00,,CLR,0.00,VWS V14.01,2013-10-05 11:46:00,
2013-10-05 04:51:00,40.9,38.5,30.11,SSE,149,0.0,0.0,91,0.00,,CLR,0.00,VWS V14.01,2013-10-05 11:51:00,
2013-10-05 04:56:00,40.8,38.4,30.12,SSE,149,0.0,0.0,91,0.00,,CLR,0.00,VWS V14.01,2013-10-05 11:56:00,
2013-10-05 05:01:00,40.6,37.9,30.12,SSE,149,0.0,0.0,90,0.00,,CLR,0.00,VWS V14.01,2013-10-05 12:01:00,
2013-10-05 05:06:00,40.5,37.8,30.12,SSE,149,0.0,0.0,90,0.00,,CLR,0.00,VWS V14.01,2013-10-05 12:06:00,
2013-10-05 05:11:00,40.5,37.8,30.12,SSE,149,0.0,0.0,90,0.00,,CLR,0.00,VWS V14.01,2013-10-05 12:11:00,
2013-10-05 05:16:00,40.3,37.6,30.12,SSE,149,0.0,0.0,90,0.00,,CLR,0.00,VWS V14.01,2013-10-05 12:16:00,
2013-10-05 05:21:00,40.2,37.5,30.12,SSE,149,0.0,0.0,90,0.00,,CLR,0.00,VWS V14.01,2013-10-05 12:21:00,
2013-10-05 05:26:00,40.1,37.4,30.12,SSE,149,0.0,0.0,90,0.00,,CLR,0.00,VWS V14.01,2013-10-05 12:26:00,
2013-10-05 05:31:00,40.1,37.4,30.12,SSE,149,0.0,0.0,90,0.00,,CLR,0.00,VWS V14.01,2013-10-05 12:31:00,
2013-10-05 05:36:00,40.1,37.7,30.12,SSE,149,0.0,0.0,91,0.00,,CLR,0.00,VWS V14.01,2013-10-05 12:36:00,
2013-10-05 05:41:00,40.1,37.4,30.13,SSE,149,0.0,0.0,90,0.00,,CLR,0.00,VWS V14.01,2013-10-05 12:41:00,
2013-10-05 05:46:00,40.1,37.4,30.13,SSE,149,0.0,0.0,90,0.00,,CLR,0.00,VWS V14.01,2013-10-05 12:46:00,
2013-10-05 05:51:00,39.9,37.2,30.13,SSE,149,0.0,0.0,90,0.00,,CLR,0.00,VWS V14.01,2013-10-05 12:51:00,
2013-10-05 05:56:00,40.1,37.7,30.13,SSE,149,0.0,0.0,91,0.00,,CLR,0.00,VWS V14.01,2013-10-05 12:56:00,
2013-10-05 06:02:00,40.2,37.5,30.13,SSE,149,0.0,0.0,90,0.00,,CLR,0.00,VWS V14.01,2013-10-05 13:02:00,
2013-10-05 06:07:00,40.3,37.6,30.14,SSE,149,0.0,0.0,90,0.00,,CLR,0.00,VWS V14.01,2013-10-05 13:07:00,
2013-10-05 06:12:00,40.3,37.6,30.14,SSE,149,0.0,0.0,90,0.00,,CLR,0.00,VWS V14.01,2013-10-05 13:12:00,
2013-10-05 06:16:00,40.3,37.6,30.14,SSE,149,0.0,0.0,90,0.00,,CLR,0.00,VWS V14.01,2013-10-05 13:16:00,
2013-10-05 06:21:00,40.3,37.6,30.14,SSE,149,0.0,0.0,90,0.00,,CLR,0.00,VWS V14.01,2013-10-05 13:21:00,
2013-10-05 06:26:00,40.3,37.6,30.15,SSE,149,0.0,0.0,90,0.00,,CLR,0.00,VWS V14.01,2013-10-05 13:26:00,
2013-10-05 06:31:00,40.3,37.3,30.15,SSE,149,0.0,0.0,89,0.00,,CLR,0.00,VWS V14.01,2013-10-05 13:31:00,
2013-10-05 06:36:00,40.2,37.2,30.15,SSE,149,0.0,0.0,89,0.00,,CLR,0.00,VWS V14.01,2013-10-05 13:36:00,
2013-10-05 06:41:00,40.2,37.2,30.15,SSE,149,0.0,0.0,89,0.00,,CLR,0.00,VWS V14.01,2013-10-05 13:41:00,
2013-10-05 06:46:00,39.9,36.9,30.15,SSE,149,0.0,0.0,89,0.00,,CLR,0.00,VWS V14.01,2013-10-05 13:46:00,
2013-10-05 06:51:00,39.6,36.6,30.15,SSE,149,0.0,0.0,89,0.00,,CLR,0.00,VWS V14.01,2013-10-05 13:51:00,
2013-10-05 06:56:00,39.6,36.6,30.15,SSE,149,0.0,0.0,89,0.00,,CLR,0.00,VWS V14.01,2013-10-05 13:56:00,
2013-10-05 07:01:00,39.6,36.6,30.16,SSE,149,0.0,0.0,89,0.00,,CLR,0.00,VWS V14.01,2013-10-05 14:01:00,
2013-10-05 07:06:00,39.6,36.6,30.15,SSE,149,0.0,0.0,89,0.00,,CLR,0.00,VWS V14.01,2013-10-05 14:06:00,
2013-10-05 07:11:00,39.6,36.6,30.16,SSE,149,0.0,0.0,89,0.00,,CLR,0.00,VWS V14.01,2013-10-05 14:11:00,
2013-10-05 07:16:00,39.5,36.5,30.16,SSE,149,0.0,0.0,89,0.00,,CLR,0.00,VWS V14.01,2013-10-05 14:16:00,
2013-10-05 07:21:00,39.3,36.3,30.15,SSE,149,0.0,0.0,89,0.00,,CLR,0.00,VWS V14.01,2013-10-05 14:21:00,
2013-10-05 07:26:00,39.5,36.5,30.16,SSE,149,0.0,0.0,89,0.00,,CLR,0.00,VWS V14.01,2013-10-05 14:26:00,
2013-10-05 07:31:00,39.5,36.5,30.16,SSE,149,0.0,0.0,89,0.00,,CLR,0.00,VWS V14.01,2013-10-05 14:31:00,
2013-10-05 07:36:00,39.5,36.5,30.16,SSE,149,0.0,0.0,89,0.00,,CLR,0.00,VWS V14.01,2013-10-05 14:36:00,
2013-10-05 07:41:00,39.8,36.8,30.16,SSE,149,0.0,0.0,89,0.00,,CLR,0.00,VWS V14.01,2013-10-05 14:41:00,
2013-10-05 07:46:00,40.1,37.1,30.16,SSE,149,0.0,0.0,89,0.00,,CLR,0.00,VWS V14.01,2013-10-05 14:46:00,
2013-10-05 07:51:00,40.5,37.5,30.16,SSE,149,0.0,0.0,89,0.00,,CLR,0.00,VWS V14.01,2013-10-05 14:51:00,
2013-10-05 07:56:00,40.9,37.9,30.16,SSE,149,0.0,0.0,89,0.00,,CLR,0.00,VWS V14.01,2013-10-05 14:56:00,
2013-10-05 08:01:00,41.1,37.8,30.16,SSE,149,0.0,0.0,88,0.00,,CLR,0.00,VWS V14.01,2013-10-05 15:01:00,
2013-10-05 08:06:00,41.5,38.2,30.16,SSE,149,0.0,0.0,88,0.00,,CLR,0.00,VWS V14.01,2013-10-05 15:06:00,
2013-10-05 08:11:00,41.6,38.0,30.16,SSE,149,0.0,0.0,87,0.00,,CLR,0.00,VWS V14.01,2013-10-05 15:11:00,
2013-10-05 08:16:00,41.9,38.3,30.16,SSE,149,0.0,0.0,87,0.00,,CLR,0.00,VWS V14.01,2013-10-05 15:16:00,
2013-10-05 08:21:00,42.2,38.6,30.17,SSE,149,0.0,0.0,87,0.00,,CLR,0.00,VWS V14.01,2013-10-05 15:21:00,
2013-10-05 08:26:00,42.9,39.0,30.17,SSE,149,0.0,0.0,86,0.00,,CLR,0.00,VWS V14.01,2013-10-05 15:26:00,
2013-10-05 08:31:00,43.5,39.3,30.17,SSE,149,0.0,0.0,85,0.00,,CLR,0.00,VWS V14.01,2013-10-05 15:31:00,
2013-10-05 08:36:00,44.6,39.5,30.17,ESE,123,0.0,0.0,82,0.00,,CLR,0.00,VWS V14.01,2013-10-05 15:36:00,
2013-10-05 08:41:00,46.7,39.9,30.17,NW,321,1.0,3.0,77,0.00,,CLR,0.00,VWS V14.01,2013-10-05 15:41:00,
2013-10-05 08:46:00,48.3,40.4,30.17,NNW,343,0.0,4.0,74,0.00,,CLR,0.00,VWS V14.01,2013-10-05 15:46:00,
2013-10-05 08:51:00,50.1,41.8,30.17,NNW,343,0.0,0.0,73,0.00,,CLR,0.00,VWS V14.01,2013-10-05 15:51:00,
2013-10-05 08:56:00,51.3,42.2,30.17,NNW,343,0.0,2.0,71,0.00,,CLR,0.00,VWS V14.01,2013-10-05 15:56:00,
2013-10-05 09:01:00,52.2,43.1,30.17,NNW,343,0.0,3.0,71,0.00,,CLR,0.00,VWS V14.01,2013-10-05 16:01:00,
2013-10-05 09:06:00,52.9,43.4,30.17,NNW,343,0.0,0.0,70,0.00,,CLR,0.00,VWS V14.01,2013-10-05 16:06:00,
2013-10-05 09:11:00,53.9,44.3,30.18,NNW,343,0.0,0.0,70,0.00,,CLR,0.00,VWS V14.01,2013-10-05 16:11:00,
2013-10-05 09:16:00,55.1,44.7,30.18,NNW,343,0.0,0.0,68,0.00,,CLR,0.00,VWS V14.01,2013-10-05 16:16:00,
2013-10-05 09:21:00,55.9,45.1,30.18,NNW,343,0.0,0.0,67,0.00,,CLR,0.00,VWS V14.01,2013-10-05 16:21:00,
2013-10-05 09:26:00,56.5,45.3,30.18,NNW,343,0.0,0.0,66,0.00,,CLR,0.00,VWS V14.01,2013-10-05 16:26:00,
2013-10-05 09:31:00,57.2,45.2,30.17,NNW,343,0.0,0.0,64,0.00,,CLR,0.00,VWS V14.01,2013-10-05 16:31:00,
2013-10-05 09:36:00,58.1,45.6,30.18,NNW,343,0.0,0.0,63,0.00,,CLR,0.00,VWS V14.01,2013-10-05 16:36:00,
2013-10-05 09:41:00,58.9,46.3,30.18,NNW,343,0.0,1.0,63,0.00,,CLR,0.00,VWS V14.01,2013-10-05 16:41:00,
2013-10-05 09:46:00,59.6,46.6,30.18,NNW,343,0.0,0.0,62,0.00,,CLR,0.00,VWS V14.01,2013-10-05 16:46:00,
2013-10-05 09:51:00,60.5,46.6,30.18,North,350,0.0,0.0,60,0.00,,CLR,0.00,VWS V14.01,2013-10-05 16:51:00,
2013-10-05 09:56:00,61.6,46.2,30.17,NW,314,0.0,3.0,57,0.00,,CLR,0.00,VWS V14.01,2013-10-05 16:56:00,
2013-10-05 10:01:00,62.4,47.0,30.18,NW,314,0.0,0.0,57,0.00,,CLR,0.00,VWS V14.01,2013-10-05 17:01:00,
2013-10-05 10:06:00,63.2,45.3,30.17,NW,314,0.0,0.0,52,0.00,,CLR,0.00,VWS V14.01,2013-10-05 17:06:00,
2013-10-05 10:11:00,64.8,42.4,30.17,SE,145,1.0,1.0,44,0.00,,CLR,0.00,VWS V14.01,2013-10-05 17:11:00,
2013-10-05 10:16:00,66.8,43.0,30.18,SSE,161,3.0,4.0,42,0.00,,CLR,0.00,VWS V14.01,2013-10-05 17:16:00,
2013-10-05 10:21:00,68.6,41.3,30.17,SSE,163,1.0,7.0,37,0.00,,CLR,0.00,VWS V14.01,2013-10-05 17:21:00,
2013-10-05 10:26:00,70.3,41.4,30.17,SE,143,0.0,0.0,35,0.00,,CLR,0.00,VWS V14.01,2013-10-05 17:26:00,
2013-10-05 10:31:00,71.3,42.3,30.18,SE,141,4.0,4.0,35,0.00,,CLR,0.00,VWS V14.01,2013-10-05 17:31:00,
2013-10-05 10:36:00,72.5,41.0,30.18,SSE,148,0.0,7.0,32,0.00,,CLR,0.00,VWS V14.01,2013-10-05 17:36:00,
2013-10-05 10:41:00,73.5,41.9,30.18,SSW,205,4.0,6.0,32,0.00,,CLR,0.00,VWS V14.01,2013-10-05 17:41:00,
2013-10-05 10:46:00,74.6,41.2,30.18,SSE,155,6.0,9.0,30,0.00,,CLR,0.00,VWS V14.01,2013-10-05 17:46:00,
2013-10-05 10:51:00,75.3,41.8,30.18,SSE,161,5.0,8.0,30,0.00,,CLR,0.00,VWS V14.01,2013-10-05 17:51:00,
2013-10-05 10:56:00,75.8,39.5,30.18,SE,138,4.0,11.0,27,0.00,,CLR,0.00,VWS V14.01,2013-10-05 17:56:00,
2013-10-05 11:01:00,76.1,40.7,30.17,SE,135,3.0,13.0,28,0.00,,CLR,0.00,VWS V14.01,2013-10-05 18:01:00,
2013-10-05 11:06:00,76.3,41.7,30.17,South,170,5.0,12.0,29,0.00,,CLR,0.00,VWS V14.01,2013-10-05 18:06:00,
2013-10-05 11:11:00,76.7,40.2,30.17,SSE,160,5.0,10.0,27,0.00,,CLR,0.00,VWS V14.01,2013-10-05 18:11:00,
2013-10-05 11:16:00,77.2,39.7,30.17,SSE,151,4.0,9.0,26,0.00,,CLR,0.00,VWS V14.01,2013-10-05 18:16:00,
2013-10-05 11:21:00,77.7,39.1,30.17,SE,142,5.0,5.0,25,0.00,,CLR,0.00,VWS V14.01,2013-10-05 18:21:00,
2013-10-05 11:26:00,78.3,39.6,30.17,ESE,123,4.0,10.0,25,0.00,,CLR,0.00,VWS V14.01,2013-10-05 18:26:00,
2013-10-05 11:31:00,78.8,40.0,30.17,SSE,162,7.0,11.0,25,0.00,,CLR,0.00,VWS V14.01,2013-10-05 18:31:00,
2013-10-05 11:36:00,79.2,41.4,30.17,ESE,120,11.0,11.0,26,0.00,,CLR,0.00,VWS V14.01,2013-10-05 18:36:00,
2013-10-05 11:41:00,79.8,39.8,30.17,SE,140,4.0,12.0,24,0.00,,CLR,0.00,VWS V14.01,2013-10-05 18:41:00,
2013-10-05 11:46:00,80.1,40.1,30.17,East,96,5.0,15.0,24,0.00,,CLR,0.00,VWS V14.01,2013-10-05 18:46:00,
2013-10-05 11:51:00,80.3,40.3,30.17,ESE,114,9.0,12.0,24,0.00,,CLR,0.00,VWS V14.01,2013-10-05 18:51:00,
2013-10-05 11:56:00,80.7,40.6,30.17,SSE,165,4.0,6.0,24,0.00,,CLR,0.00,VWS V14.01,2013-10-05 18:56:00,
2013-10-05 12:01:00,81.2,37.6,30.17,SSE,165,2.0,7.0,21,0.00,,CLR,0.00,VWS V14.01,2013-10-05 19:01:00,
2013-10-05 12:06:00,81.6,39.1,30.17,ESE,118,8.0,8.0,22,0.00,,CLR,0.00,VWS V14.01,2013-10-05 19:06:00,
2013-10-05 12:11:00,81.8,38.1,30.17,ESE,117,4.0,9.0,21,0.00,,CLR,0.00,VWS V14.01,2013-10-05 19:11:00,
2013-10-05 12:16:00,82.2,38.4,30.17,SE,134,9.0,10.0,21,0.00,,CLR,0.00,VWS V14.01,2013-10-05 19:16:00,
2013-10-05 12:21:00,82.8,38.9,30.17,SE,139,7.0,9.0,21,0.00,,CLR,0.00,VWS V14.01,2013-10-05 19:21:00,
2013-10-05 12:26:00,83.4,40.6,30.17,SSE,166,2.0,7.0,22,0.00,,CLR,0.00,VWS V14.01,2013-10-05 19:26:00,
2013-10-05 12:31:00,83.8,42.1,30.17,SSE,159,4.0,7.0,23,0.00,,CLR,0.00,VWS V14.01,2013-10-05 19:31:00,
2013-10-05 12:36:00,84.0,42.3,30.17,SSE,159,0.0,4.0,23,0.00,,CLR,0.00,VWS V14.01,2013-10-05 19:36:00,
2013-10-05 12:41:00,84.3,42.5,30.17,SSE,159,2.0,4.0,23,0.00,,CLR,0.00,VWS V14.01,2013-10-05 19:41:00,
2013-10-05 12:46:00,84.5,46.9,30.16,South,182,4.0,5.0,27,0.00,,CLR,0.00,VWS V14.01,2013-10-05 19:46:00,
2013-10-05 12:51:00,84.9,46.2,30.16,SSE,167,3.0,4.0,26,0.00,,CLR,0.00,VWS V14.01,2013-10-05 19:51:00,
2013-10-05 12:56:00,85.5,46.7,30.16,SW,219,3.0,4.0,26,0.00,,CLR,0.00,VWS V14.01,2013-10-05 19:56:00,
2013-10-05 13:01:00,85.9,47.1,30.16,South,173,3.0,5.0,26,0.00,,CLR,0.00,VWS V14.01,2013-10-05 20:01:00,
2013-10-05 13:06:00,86.3,45.3,30.16,SSW,205,2.0,4.0,24,0.00,,CLR,0.00,VWS V14.01,2013-10-05 20:06:00,
2013-10-05 13:11:00,86.5,43.2,30.15,SE,130,0.0,3.0,22,0.00,,CLR,0.00,VWS V14.01,2013-10-05 20:11:00,
2013-10-05 13:16:00,86.5,42.0,30.15,SE,132,2.0,2.0,21,0.00,,CLR,0.00,VWS V14.01,2013-10-05 20:16:00,
2013-10-05 13:21:00,86.7,42.1,30.15,South,169,2.0,3.0,21,0.00,,CLR,0.00,VWS V14.01,2013-10-05 20:21:00,
2013-10-05 13:26:00,86.5,39.4,30.15,SSE,157,1.0,5.0,19,0.00,,CLR,0.00,VWS V14.01,2013-10-05 20:26:00,
2013-10-05 13:31:00,86.3,37.8,30.15,SSE,157,0.0,0.0,18,0.00,,CLR,0.00,VWS V14.01,2013-10-05 20:31:00,
2013-10-05 13:36:00,86.7,40.9,30.15,South,190,1.0,5.0,20,0.00,,CLR,0.00,VWS V14.01,2013-10-05 20:36:00,
2013-10-05 13:41:00,87.2,40.0,30.14,ESE,123,3.0,3.0,19,0.00,,CLR,0.00,VWS V14.01,2013-10-05 20:41:00,
2013-10-05 13:46:00,87.2,41.3,30.14,SSE,154,2.0,5.0,20,0.00,,CLR,0.00,VWS V14.01,2013-10-05 20:46:00,
2013-10-05 13:51:00,87.4,40.1,30.14,ESE,117,4.0,4.0,19,0.00,,CLR,0.00,VWS V14.01,2013-10-05 20:51:00,
2013-10-05 13:56:00,87.4,37.3,30.14,SSE,153,1.0,2.0,17,0.00,,CLR,0.00,VWS V14.01,2013-10-05 20:56:00,
2013-10-05 14:01:00,87.6,38.9,30.14,ESE,117,1.0,2.0,18,0.00,,CLR,0.00,VWS V14.01,2013-10-05 21:01:00,
2013-10-05 14:06:00,87.8,37.6,30.14,West,278,3.0,5.0,17,0.00,,CLR,0.00,VWS V14.01,2013-10-05 21:06:00,
2013-10-05 14:11:00,87.4,43.9,30.14,NW,316,0.0,4.0,22,0.00,,CLR,0.00,VWS V14.01,2013-10-05 21:11:00,
2013-10-05 14:16:00,86.7,45.6,30.13,SW,232,1.0,4.0,24,0.00,,CLR,0.00,VWS V14.01,2013-10-05 21:16:00,
2013-10-05 14:21:00,85.9,47.1,30.13,NW,307,2.0,2.0,26,0.00,,CLR,0.00,VWS V14.01,2013-10-05 21:21:00,
2013-10-05 14:26:00,85.5,46.7,30.13,NNW,346,3.0,3.0,26,0.00,,CLR,0.00,VWS V14.01,2013-10-05 21:26:00,
2013-10-05 14:31:00,84.9,45.2,30.13,NNW,344,2.0,4.0,25,0.00,,CLR,0.00,VWS V14.01,2013-10-05 21:31:00,
2013-10-05 14:36:00,84.7,48.0,30.13,WNW,292,2.0,3.0,28,0.00,,CLR,0.00,VWS V14.01,2013-10-05 21:36:00,
2013-10-05 14:41:00,84.5,46.9,30.13,WNW,284,2.0,4.0,27,0.00,,CLR,0.00,VWS V14.01,2013-10-05 21:41:00,
2013-10-05 14:46:00,84.3,45.7,30.13,WNW,283,0.0,2.0,26,0.00,,CLR,0.00,VWS V14.01,2013-10-05 21:46:00,
2013-10-05 14:51:00,84.1,44.5,30.13,NNW,336,0.0,1.0,25,0.00,,CLR,0.00,VWS V14.01,2013-10-05 21:51:00,
2013-10-05 14:56:00,84.1,42.3,30.13,NNW,336,2.0,3.0,23,0.00,,CLR,0.00,VWS V14.01,2013-10-05 21:56:00,
2013-10-05 15:01:00,84.1,42.3,30.13,NNW,336,0.0,4.0,23,0.00,,CLR,0.00,VWS V14.01,2013-10-05 22:01:00,
2013-10-05 15:06:00,84.3,40.2,30.13,WNW,296,1.0,3.0,21,0.00,,CLR,0.00,VWS V14.01,2013-10-05 22:06:00,
2013-10-05 15:11:00,84.3,40.2,30.13,NNW,333,4.0,6.0,21,0.00,,CLR,0.00,VWS V14.01,2013-10-05 22:11:00,
2013-10-05 15:16:00,84.3,40.2,30.12,NNW,334,1.0,3.0,21,0.00,,CLR,0.00,VWS V14.01,2013-10-05 22:16:00,
2013-10-05 15:21:00,84.5,40.3,30.12,NW,308,0.0,1.0,21,0.00,,CLR,0.00,VWS V14.01,2013-10-05 22:21:00,
2013-10-05 15:26:00,84.5,40.3,30.12,NNW,337,1.0,5.0,21,0.00,,CLR,0.00,VWS V14.01,2013-10-05 22:26:00,
2013-10-05 15:31:00,84.3,41.4,30.12,NNW,328,0.0,0.0,22,0.00,,CLR,0.00,VWS V14.01,2013-10-05 22:31:00,
2013-10-05 15:36:00,84.3,38.9,30.12,NNW,329,3.0,4.0,20,0.00,,CLR,0.00,VWS V14.01,2013-10-05 22:36:00,
2013-10-05 15:41:00,84.3,38.9,30.12,NW,325,6.0,8.0,20,0.00,,CLR,0.00,VWS V14.01,2013-10-05 22:41:00,
2013-10-05 15:46:00,84.1,38.7,30.12,NNW,337,0.0,3.0,20,0.00,,CLR,0.00,VWS V14.01,2013-10-05 22:46:00,
2013-10-05 15:51:00,84.0,39.9,30.12,NNW,345,5.0,5.0,21,0.00,,CLR,0.00,VWS V14.01,2013-10-05 22:51:00,
2013-10-05 15:56:00,83.8,39.7,30.12,North,355,4.0,7.0,21,0.00,,CLR,0.00,VWS V14.01,2013-10-05 22:56:00,
2013-10-05 16:01:00,83.6,39.6,30.12,NNE,19,0.0,4.0,21,0.00,,CLR,0.00,VWS V14.01,2013-10-05 23:01:00,
2013-10-05 16:06:00,83.4,36.9,30.12,North,355,6.0,9.0,19,0.00,,CLR,0.00,VWS V14.01,2013-10-05 23:06:00,
2013-10-05 16:11:00,83.2,38.0,30.12,North,5,5.0,5.0,20,0.00,,CLR,0.00,VWS V14.01,2013-10-05 23:11:00,
2013-10-05 16:16:00,83.2,39.2,30.12,NNW,346,5.0,7.0,21,0.00,,CLR,0.00,VWS V14.01,2013-10-05 23:16:00,
2013-10-05 16:21:00,83.0,36.5,30.12,NNE,12,2.0,7.0,19,0.00,,CLR,0.00,VWS V14.01,2013-10-05 23:21:00,
2013-10-05 16:26:00,82.8,37.7,30.12,NNE,14,6.0,7.0,20,0.00,,CLR,0.00,VWS V14.01,2013-10-05 23:26:00,
2013-10-05 16:31:00,82.6,36.2,30.12,North,9,3.0,6.0,19,0.00,,CLR,0.00,VWS V14.01,2013-10-05 23:31:00,
2013-10-05 16:36:00,82.6,36.2,30.11,NE,49,1.0,9.0,19,0.00,,CLR,0.00,VWS V14.01,2013-10-05 23:36:00,
2013-10-05 16:41:00,82.6,37.5,30.11,NW,323,0.0,0.0,20,0.00,,CLR,0.00,VWS V14.01,2013-10-05 23:41:00,
2013-10-05 16:46:00,82.8,36.4,30.11,NNW,342,0.0,1.0,19,0.00,,CLR,0.00,VWS V14.01,2013-10-05 23:46:00,
2013-10-05 16:51:00,83.0,35.2,30.11,NNW,329,0.0,0.0,18,0.00,,CLR,0.00,VWS V14.01,2013-10-05 23:51:00,
2013-10-05 16:56:00,83.0,35.2,30.11,WNW,299,0.0,0.0,18,0.00,,CLR,0.00,VWS V14.01,2013-10-05 23:56:00,
2013-10-05 17:01:00,82.8,35.0,30.11,NW,323,0.0,6.0,18,0.00,,CLR,0.00,VWS V14.01,2013-10-06 00:01:00,
2013-10-05 17:06:00,82.6,36.2,30.11,NNW,337,0.0,1.0,19,0.00,,CLR,0.00,VWS V14.01,2013-10-06 00:06:00,
2013-10-05 17:11:00,82.4,34.7,30.11,NNW,336,0.0,0.0,18,0.00,,CLR,0.00,VWS V14.01,2013-10-06 00:11:00,
2013-10-05 17:16:00,82.0,35.7,30.11,NNW,339,0.0,0.0,19,0.00,,CLR,0.00,VWS V14.01,2013-10-06 00:16:00,
2013-10-05 17:21:00,81.8,34.2,30.11,North,355,0.0,3.0,18,0.00,,CLR,0.00,VWS V14.01,2013-10-06 00:21:00,
2013-10-05 17:26:00,81.6,35.4,30.11,North,355,4.0,6.0,19,0.00,,CLR,0.00,VWS V14.01,2013-10-06 00:26:00,
2013-10-05 17:31:00,81.2,35.1,30.11,NW,323,0.0,4.0,19,0.00,,CLR,0.00,VWS V14.01,2013-10-06 00:31:00,
2013-10-05 17:36:00,80.7,34.7,30.11,NNW,331,0.0,0.0,19,0.00,,CLR,0.00,VWS V14.01,2013-10-06 00:36:00,
2013-10-05 17:41:00,80.5,33.1,30.11,NNW,341,0.0,0.0,18,0.00,,CLR,0.00,VWS V14.01,2013-10-06 00:41:00,
2013-10-05 17:46:00,80.1,32.8,30.11,NW,322,0.0,4.0,18,0.00,,CLR,0.00,VWS V14.01,2013-10-06 00:46:00,
2013-10-05 17:51:00,79.9,34.0,30.11,NNW,333,0.0,4.0,19,0.00,,CLR,0.00,VWS V14.01,2013-10-06 00:51:00,
2013-10-05 17:56:00,79.6,33.8,30.11,NNW,340,0.0,0.0,19,0.00,,CLR,0.00,VWS V14.01,2013-10-06 00:56:00,
2013-10-05 18:01:00,79.2,34.7,30.11,NNW,340,0.0,0.0,20,0.00,,CLR,0.00,VWS V14.01,2013-10-06 01:01:00,
2013-10-05 18:06:00,78.6,34.2,30.12,NNW,341,0.0,1.0,20,0.00,,CLR,0.00,VWS V14.01,2013-10-06 01:06:00,
2013-10-05 18:11:00,78.1,35.0,30.12,NNW,341,0.0,0.0,21,0.00,,CLR,0.00,VWS V14.01,2013-10-06 01:11:00,
2013-10-05 18:16:00,77.4,35.6,30.12,NNW,341,0.0,0.0,22,0.00,,CLR,0.00,VWS V14.01,2013-10-06 01:16:00,
2013-10-05 18:21:00,76.8,36.2,30.12,NNW,341,0.0,0.0,23,0.00,,CLR,0.00,VWS V14.01,2013-10-06 01:21:00,
2013-10-05 18:26:00,76.3,36.9,30.12,NNW,341,0.0,0.0,24,0.00,,CLR,0.00,VWS V14.01,2013-10-06 01:26:00,
2013-10-05 18:31:00,75.6,37.3,30.12,NNW,341,0.0,0.0,25,0.00,,CLR,0.00,VWS V14.01,2013-10-06 01:31:00,
2013-10-05 18:36:00,74.9,37.7,30.12,NNW,341,0.0,0.0,26,0.00,,CLR,0.00,VWS V14.01,2013-10-06 01:36:00,
2013-10-05 18:41:00,74.4,39.2,30.12,NNW,341,0.0,0.0,28,0.00,,CLR,0.00,VWS V14.01,2013-10-06 01:41:00,
2013-10-05 18:46:00,73.2,40.8,30.12,NNW,341,0.0,0.0,31,0.00,,CLR,0.00,VWS V14.01,2013-10-06 01:46:00,
2013-10-05 18:51:00,71.8,42.7,30.12,NNW,341,0.0,0.0,35,0.00,,CLR,0.00,VWS V14.01,2013-10-06 01:51:00,
2013-10-05 18:56:00,70.4,42.2,30.12,NNW,341,0.0,0.0,36,0.00,,CLR,0.00,VWS V14.01,2013-10-06 01:56:00,
2013-10-05 19:01:00,69.1,42.5,30.12,NNW,341,0.0,0.0,38,0.00,,CLR,0.00,VWS V14.01,2013-10-06 02:01:00,
2013-10-05 19:06:00,67.8,43.3,30.12,NNW,341,0.0,0.0,41,0.00,,CLR,0.00,VWS V14.01,2013-10-06 02:06:00,
2013-10-05 19:11:00,66.4,42.6,30.12,NNW,341,0.0,0.0,42,0.00,,CLR,0.00,VWS V14.01,2013-10-06 02:11:00,
2013-10-05 19:16:00,65.5,43.6,30.13,NNW,341,0.0,0.0,45,0.00,,CLR,0.00,VWS V14.01,2013-10-06 02:16:00,
2013-10-05 19:21:00,64.5,42.7,30.13,NNW,341,0.0,0.0,45,0.00,,CLR,0.00,VWS V14.01,2013-10-06 02:21:00,
2013-10-05 19:26:00,63.5,42.4,30.13,NNW,341,0.0,0.0,46,0.00,,CLR,0.00,VWS V14.01,2013-10-06 02:26:00,
2013-10-05 19:31:00,62.7,42.8,30.13,NNW,341,0.0,0.0,48,0.00,,CLR,0.00,VWS V14.01,2013-10-06 02:31:00,
2013-10-05 19:37:00,62.0,42.6,30.13,NNW,341,0.0,0.0,49,0.00,,CLR,0.00,VWS V14.01,2013-10-06 02:37:00,
2013-10-05 19:42:00,61.2,42.4,30.13,NNW,341,0.0,0.0,50,0.00,,CLR,0.00,VWS V14.01,2013-10-06 02:42:00,
2013-10-05 19:47:00,60.5,43.3,30.13,NNW,341,0.0,0.0,53,0.00,,CLR,0.00,VWS V14.01,2013-10-06 02:47:00,
2013-10-05 19:51:00,59.9,42.2,30.13,NNW,341,0.0,0.0,52,0.00,,CLR,0.00,VWS V14.01,2013-10-06 02:51:00,
2013-10-05 19:56:00,59.5,42.4,30.13,NNW,342,0.0,0.0,53,0.00,,CLR,0.00,VWS V14.01,2013-10-06 02:56:00,
2013-10-05 20:02:00,58.9,42.3,30.13,NNW,341,0.0,0.0,54,0.00,,CLR,0.00,VWS V14.01,2013-10-06 03:02:00,
2013-10-05 20:07:00,58.4,42.3,30.13,NNW,341,0.0,0.0,55,0.00,,CLR,0.00,VWS V14.01,2013-10-06 03:07:00,
2013-10-05 20:12:00,58.0,41.9,30.13,NNW,341,0.0,0.0,55,0.00,,CLR,0.00,VWS V14.01,2013-10-06 03:12:00,
2013-10-05 20:17:00,57.5,41.9,30.13,NNW,341,0.0,0.0,56,0.00,,CLR,0.00,VWS V14.01,2013-10-06 03:17:00,
2013-10-05 20:22:00,57.0,41.9,30.13,NNW,341,0.0,0.0,57,0.00,,CLR,0.00,VWS V14.01,2013-10-06 03:22:00,
2013-10-05 20:27:00,56.7,41.7,30.13,NNW,341,0.0,0.0,57,0.00,,CLR,0.00,VWS V14.01,2013-10-06 03:27:00,
2013-10-05 20:32:00,56.3,41.7,30.13,NNW,341,0.0,0.0,58,0.00,,CLR,0.00,VWS V14.01,2013-10-06 03:32:00,
2013-10-05 20:37:00,55.9,41.8,30.13,NNW,341,0.0,0.0,59,0.00,,CLR,0.00,VWS V14.01,2013-10-06 03:37:00,
2013-10-05 20:42:00,55.6,41.5,30.13,NNW,341,0.0,0.0,59,0.00,,CLR,0.00,VWS V14.01,2013-10-06 03:42:00,
2013-10-05 20:47:00,55.4,41.3,30.13,NNW,341,0.0,0.0,59,0.00,,CLR,0.00,VWS V14.01,2013-10-06 03:47:00,
2013-10-05 20:52:00,55.0,41.8,30.13,NNW,341,0.0,0.0,61,0.00,,CLR,0.00,VWS V14.01,2013-10-06 03:52:00,
2013-10-05 20:57:00,54.5,41.8,30.14,NNW,341,0.0,0.0,62,0.00,,CLR,0.00,VWS V14.01,2013-10-06 03:57:00,
2013-10-05 21:01:00,54.2,41.9,30.14,NNW,341,0.0,0.0,63,0.00,,CLR,0.00,VWS V14.01,2013-10-06 04:01:00,
2013-10-05 21:06:00,53.9,41.2,30.14,NNW,341,0.0,0.0,62,0.00,,CLR,0.00,VWS V14.01,2013-10-06 04:06:00,
2013-10-05 21:11:00,53.6,41.3,30.14,NNW,341,0.0,0.0,63,0.00,,CLR,0.00,VWS V14.01,2013-10-06 04:11:00,
2013-10-05 21:16:00,53.2,41.8,30.14,NNW,342,0.0,0.0,65,0.00,,CLR,0.00,VWS V14.01,2013-10-06 04:16:00,
2013-10-05 21:21:00,52.9,41.5,30.14,NNW,341,0.0,0.0,65,0.00,,CLR,0.00,VWS V14.01,2013-10-06 04:21:00,
2013-10-05 21:26:00,52.6,41.6,30.14,NNW,341,0.0,0.0,66,0.00,,CLR,0.00,VWS V14.01,2013-10-06 04:26:00,
2013-10-05 21:31:00,52.3,41.7,30.14,NNW,341,0.0,0.0,67,0.00,,CLR,0.00,VWS V14.01,2013-10-06 04:31:00,
2013-10-05 21:36:00,52.2,41.6,30.14,NNW,341,0.0,0.0,67,0.00,,CLR,0.00,VWS V14.01,2013-10-06 04:36:00,
2013-10-05 21:41:00,51.9,41.7,30.14,NNW,341,0.0,0.0,68,0.00,,CLR,0.00,VWS V14.01,2013-10-06 04:41:00,
2013-10-05 21:46:00,51.6,42.2,30.14,NNW,341,0.0,0.0,70,0.00,,CLR,0.00,VWS V14.01,2013-10-06 04:46:00,
2013-10-05 21:51:00,51.3,42.2,30.14,NNW,341,0.0,0.0,71,0.00,,CLR,0.00,VWS V14.01,2013-10-06 04:51:00,
2013-10-05 21:56:00,51.1,42.0,30.14,NNW,341,0.0,0.0,71,0.00,,CLR,0.00,VWS V14.01,2013-10-06 04:56:00,
2013-10-05 22:01:00,50.8,41.8,30.14,NNW,341,0.0,0.0,71,0.00,,CLR,0.00,VWS V14.01,2013-10-06 05:01:00,
2013-10-05 22:07:00,50.7,42.0,30.14,NNW,341,0.0,0.0,72,0.00,,CLR,0.00,VWS V14.01,2013-10-06 05:07:00,
2013-10-05 22:11:00,50.5,41.8,30.14,NNW,341,0.0,0.0,72,0.00,,CLR,0.00,VWS V14.01,2013-10-06 05:11:00,
2013-10-05 22:17:00,50.2,41.5,30.14,NNW,341,0.0,0.0,72,0.00,,CLR,0.00,VWS V14.01,2013-10-06 05:17:00,
2013-10-05 22:22:00,50.1,41.8,30.14,NNW,341,0.0,0.0,73,0.00,,CLR,0.00,VWS V14.01,2013-10-06 05:22:00,
2013-10-05 22:27:00,49.8,41.2,30.14,NNW,341,0.0,0.0,72,0.00,,CLR,0.00,VWS V14.01,2013-10-06 05:27:00,
2013-10-05 22:32:00,49.6,41.3,30.14,NNW,341,0.0,0.0,73,0.00,,CLR,0.00,VWS V14.01,2013-10-06 05:32:00,
2013-10-05 22:37:00,49.4,41.1,30.14,NNW,341,0.0,0.0,73,0.00,,CLR,0.00,VWS V14.01,2013-10-06 05:37:00,
2013-10-05 22:42:00,49.2,40.9,30.14,NNW,341,0.0,0.0,73,0.00,,CLR,0.00,VWS V14.01,2013-10-06 05:42:00,
2013-10-05 22:47:00,48.9,41.0,30.14,NNW,341,0.0,0.0,74,0.00,,CLR,0.00,VWS V14.01,2013-10-06 05:47:00,
2013-10-05 22:52:00,48.8,40.9,30.14,NNW,341,0.0,0.0,74,0.00,,CLR,0.00,VWS V14.01,2013-10-06 05:52:00,
2013-10-05 22:57:00,48.6,40.7,30.14,NNW,341,0.0,0.0,74,0.00,,CLR,0.00,VWS V14.01,2013-10-06 05:57:00,
2013-10-05 23:02:00,48.3,40.4,30.13,NNW,341,0.0,0.0,74,0.00,,CLR,0.00,VWS V14.01,2013-10-06 06:02:00,
2013-10-05 23:07:00,48.3,40.8,30.13,NNW,341,0.0,0.0,75,0.00,,CLR,0.00,VWS V14.01,2013-10-06 06:07:00,
2013-10-05 23:12:00,48.3,40.8,30.13,NNW,341,0.0,0.0,75,0.00,,CLR,0.00,VWS V14.01,2013-10-06 06:12:00,
2013-10-05 23:17:00,48.3,40.8,30.14,NNW,341,0.0,0.0,75,0.00,,CLR,0.00,VWS V14.01,2013-10-06 06:17:00,
2013-10-05 23:22:00,48.2,41.0,30.14,NNW,341,0.0,0.0,76,0.00,,CLR,0.00,VWS V14.01,2013-10-06 06:22:00,
2013-10-05 23:27:00,48.2,41.0,30.14,NNW,341,0.0,0.0,76,0.00,,CLR,0.00,VWS V14.01,2013-10-06 06:27:00,
2013-10-05 23:32:00,48.0,40.8,30.13,NNW,341,0.0,0.0,76,0.00,,CLR,0.00,VWS V14.01,2013-10-06 06:32:00,
2013-10-05 23:37:00,48.3,41.4,30.13,NNW,341,0.0,0.0,77,0.00,,CLR,0.00,VWS V14.01,2013-10-06 06:37:00,
2013-10-05 23:42:00,48.6,41.7,30.13,NNW,341,0.0,0.0,77,0.00,,CLR,0.00,VWS V14.01,2013-10-06 06:42:00,
2013-10-05 23:47:00,48.8,41.6,30.13,NNW,341,0.0,0.0,76,0.00,,CLR,0.00,VWS V14.01,2013-10-06 06:47:00,
2013-10-05 23:52:00,48.8,41.6,30.13,NNW,341,0.0,0.0,76,0.00,,CLR,0.00,VWS V14.01,2013-10-06 06:52:00,
2013-10-05 23:57:00,48.6,41.4,30.13,NNW,341,0.0,0.0,76,0.00,,CLR,0.00,VWS V14.01,2013-10-06 06:57:00,